FW1608 Weather Reports


time (UTC)temp
C
wind
direction
speed
KPH
gust
KPH
rain 1hr
cm
rain 24hr
cm
rain mn
cm
humidity
%
barometer
mb
20260507213150 8 235 6.4 16.1 0.00 0.23 0.23 93 1014.6
20260507211545 8 221 6.4 17.7 0.00 0.23 0.23 93 1014.6
20260507210043 8 247 4.8 16.1 0.00 0.23 0.23 93 1014.5
20260507204543 8 235 8.0 16.1 0.03 0.23 0.23 93 1014.5
20260507203141 8 282 4.8 9.7 0.03 0.23 0.23 93 1014.4
20260507201540 9 282 4.8 11.3 0.05 0.23 0.23 92 1014.2
20260507200046 9 219 6.4 11.3 0.23 0.23 0.23 92 1014.3
20260507194537 10 230 1.6 8.0 0.20 0.23 0.23 91 1014.1
20260507193136 10 332 3.2 9.7 0.20 0.23 0.23 90 1014.1
20260507191542 11 310 4.8 11.3 0.15 0.18 0.18 88 1014.0
20260507190040 11 193 4.8 8.0 0.00 0.03 0.03 86 1013.8
20260507184540 11 213 0.0 3.2 0.00 0.03 0.03 84 1013.6
20260507183139 11 213 1.6 8.0 0.00 0.03 0.03 84 1013.5
20260507181535 10 18 1.6 6.4 0.00 0.03 0.03 85 1013.3
20260507180042 11 308 1.6 6.4 0.00 0.03 0.03 85 1013.1
20260507174536 11 310 0.0 1.6 0.00 0.03 0.03 85 1013.1
20260507173134 11 310 0.0 3.2 0.00 0.03 0.03 84 1012.9
20260507171607 11 311 1.6 6.4 0.00 0.03 0.03 83 1013.1
20260507170055 11 311 3.2 6.4 0.00 0.03 0.03 81 1012.8
20260507164602 12 28 0.0 1.6 0.00 0.03 0.03 80 1012.9
20260507163149 12 57 0.0 1.6 0.00 0.03 0.03 80 1012.9
20260507161547 13 59 1.6 3.2 0.00 0.03 0.03 76 1013.0
20260507160046 13 62 0.0 4.8 0.00 0.03 0.03 74 1013.0
20260507154545 14 61 1.6 8.0 0.00 0.03 0.03 71 1012.9
20260507153144 15 18 1.6 8.0 0.00 0.03 0.03 69 1013.0
20260507151544 15 76 1.6 9.7 0.00 0.03 0.03 70 1013.0
20260507150043 15 39 0.0 16.1 0.00 0.03 0.03 71 1013.2
20260507144640 13 40 1.6 14.5 0.00 0.03 0.03 70 1013.2
20260507143139 14 18 3.2 9.7 0.00 0.03 0.03 70 1013.3
20260507141537 14 92 0.0 4.8 0.00 0.03 0.03 70 1013.3
20260507140036 15 83 1.6 6.4 0.00 0.03 0.03 70 1013.4
20260507134545 15 15 1.6 20.9 0.00 0.03 0.03 72 1013.5
20260507133135 16 51 0.0 12.9 0.00 0.03 0.03 67 1013.5
20260507131609 16 53 4.8 17.7 0.00 0.03 0.03 69 1013.7
20260507130055 16 64 6.4 19.3 0.00 0.03 0.03 68 1013.8
20260507124554 15 74 1.6 14.5 0.00 0.03 0.03 70 1013.8
20260507123150 15 29 3.2 11.3 0.00 0.03 0.03 68 1014.0
20260507121555 15 88 4.8 11.3 0.00 0.03 0.03 70 1014.1
20260507120051 15 78 3.2 17.7 0.00 0.03 0.03 69 1014.2
20260507114547 14 68 1.6 14.5 0.00 0.03 0.03 75 1014.3
20260507113147 14 59 1.6 12.9 0.00 0.03 0.03 78 1014.5
20260507111543 13 55 3.2 14.5 0.00 0.03 0.03 80 1014.5
20260507110055 12 70 3.2 14.5 0.00 0.10 0.03 84 1014.7
20260507104540 12 78 4.8 12.9 0.00 0.10 0.03 81 1014.9
20260507103140 13 68 1.6 8.0 0.00 0.10 0.03 80 1015.0
20260507101546 13 38 1.6 8.0 0.00 0.10 0.03 82 1015.1
20260507100041 12 29 1.6 9.7 0.00 0.15 0.03 82 1015.1
20260507094538 13 58 1.6 9.7 0.00 0.15 0.03 83 1015.0
20260507093136 13 50 3.2 8.0 0.00 0.15 0.03 84 1015.0
20260507091559 12 32 1.6 6.4 0.00 0.15 0.03 85 1014.9
20260507090042 12 72 1.6 8.0 0.00 0.20 0.03 86 1015.0
20260507084539 12 65 3.2 8.0 0.00 0.20 0.03 89 1014.8
20260507083131 11 65 1.6 6.4 0.00 0.20 0.03 88 1014.8
20260507081556 11 103 1.6 8.0 0.00 0.20 0.03 89 1014.8
20260507080054 11 61 1.6 6.4 0.00 0.20 0.03 91 1014.8
20260507074550 10 84 0.0 6.4 0.00 0.20 0.03 90 1014.6
20260507073147 10 96 1.6 6.4 0.00 0.20 0.03 90 1014.7
20260507071557 8 126 3.2 9.7 0.00 0.20 0.03 93 1014.6
20260507070100 8 130 3.2 8.0 0.00 0.25 0.03 93 1014.6
20260507064546 7 161 4.8 8.0 0.00 0.25 0.03 94 1014.7
20260507063144 7 192 4.8 9.7 0.00 0.25 0.03 95 1014.7
20260507061551 7 198 8.0 12.9 0.00 0.25 0.03 95 1014.5
20260507054547 6 157 9.7 16.1 0.00 0.43 0.03 96 1014.5
20260507053137 6 171 9.7 17.7 0.00 0.43 0.03 96 1014.4
20260507051543 5 180 6.4 12.9 0.00 0.43 0.03 96 1014.4
20260507050042 5 199 6.4 16.1 0.00 0.66 0.03 96 1014.3
20260507044534 5 209 4.8 12.9 0.00 0.66 0.03 96 1014.2
20260507043132 5 221 1.6 6.4 0.00 0.66 0.03 96 1014.0
20260507041552 5 224 3.2 8.0 0.00 0.66 0.03 96 1014.0
20260507040050 5 240 0.0 4.8 0.00 0.89 0.03 95 1014.0
20260507034557 6 240 3.2 8.0 0.00 0.89 0.03 96 1013.9
20260507033148 6 259 1.6 4.8 0.00 0.89 0.03 96 1014.0
20260507031544 6 259 1.6 4.8 0.00 0.89 0.03 96 1014.1
20260507030045 6 261 3.2 6.4 0.00 1.02 0.03 96 1014.0
20260507024555 6 259 3.2 6.4 0.00 1.02 0.03 96 1014.0
20260507023143 6 255 3.2 4.8 0.00 1.02 0.03 96 1013.9
20260507021547 6 255 3.2 4.8 0.00 1.02 0.03 96 1014.0
20260507020044 6 255 3.2 4.8 0.03 1.07 0.03 95 1014.0
20260507014543 6 255 1.6 4.8 0.03 1.07 0.03 95 1014.0
20260507013140 6 255 0.0 0.0 0.03 1.07 0.03 95 1013.9
20260507011542 6 254 0.0 6.4 0.03 1.07 0.03 95 1013.9
20260507010042 6 1 0.0 3.2 0.00 1.04 0.00 94 1014.2
20260507004535 6 8 3.2 12.9 0.00 1.04 0.00 94 1014.1
20260507003135 6 167 1.6 6.4 0.00 1.04 0.00 94 1013.9
20260507001602 6 184 0.0 9.7 0.00 1.04 0.00 94 1014.0
20260507000104 6 224 12.9 24.1 0.00 1.04 0.00 94 1013.9
20260506234602 6 215 4.8 8.0 0.00 1.04 0.00 95 1013.9
20260506233150 6 249 3.2 8.0 0.00 1.04 0.00 94 1013.8
20260506231548 6 229 3.2 6.4 0.00 1.04 0.00 94 1013.8
20260506230047 6 347 3.2 6.4 0.00 1.09 0.00 94 1013.8
20260506224549 6 351 0.0 6.4 0.00 1.09 0.00 94 1013.9
20260506223145 6 220 6.4 12.9 0.00 1.09 0.00 94 1013.8
20260506221548 7 191 3.2 9.7 0.00 1.09 0.00 93 1013.7
20260506220050 6 232 4.8 11.3 0.00 1.09 1.09 94 1013.9
20260506214544 6 205 4.8 9.7 0.00 1.09 1.09 94 1013.8